This demonstration page uses our WeatherBlox Daily Observations layout. Learn more.

Left ArrowRight Arrow

39.01783, -85.05884

Hourly Observations for May 24, 2015

Temp ( °F °C ) Dew Point ( °F °C ) Humidity (%) Winds ( mph kmh ) Pressure ( in mb ) Visibility ( mi km ) Precip ( " mm )
12:52 am 00:52 Mostly Clear 63 17.2 46 7.8 54 54 SE 5 7 30.25 1025 10 16 0.00 0.00
1:52 am 01:52 Clear 62 16.7 46 7.8 56 56 SE 7 11 30.25 1024 10 16 0.00 0.00
2:52 am 02:52 Clear 63 17.2 47 8.3 56 56 SE 8 13 30.24 1024 10 16 0.00 0.00
3:52 am 03:52 Clear 63 17.2 47 8.3 56 56 SSE 10 17 30.24 1024 10 16 0.00 0.00
4:52 am 04:52 Clear 61 16.1 48 8.9 63 63 S 8 13 30.24 1024 10 16 0.00 0.00
5:52 am 05:52 Mostly Cloudy 61 16.1 48 8.9 63 63 S 7 11 30.24 1024 10 16 0.00 0.00
6:52 am 06:52 Partly Cloudy 60 15.6 49 9.4 67 67 SSE 7 11 30.25 1025 10 16 0.00 0.00
7:52 am 07:52 Partly Cloudy 65 18.3 51 10.6 61 61 SSE 6 9 30.26 1025 10 16 0.00 0.00
8:52 am 08:52 Mostly Cloudy 69 20.6 54 12.2 59 59 S 7 11 30.27 1025 10 16 0.00 0.00
9:52 am 09:52 Mostly Cloudy 73 22.8 53 11.7 50 50 S 10 17 30.26 1025 10 16 0.00 0.00
10:52 am 10:52 Mostly Cloudy 73 22.8 53 11.7 50 50 SSW 9 15 30.26 1025 10 16 0.00 0.00
11:52 am 11:52 Mostly Cloudy 76 24.4 54 12.2 47 47 S 12 19 30.25 1024 10 16 0.00 0.00
12:52 pm 12:52 Partly Cloudy 79 26.1 54 12.2 42 42 S 12 19 30.23 1024 10 16 0.00 0.00
1:52 pm 13:52 Mostly Cloudy 81 27.2 55 12.8 41 41 SSE 12 19 30.20 1023 10 16 0.00 0.00
2:52 pm 14:52 Mostly Cloudy 83 28.3 54 12.2 37 37 SSW 13 20 30.18 1022 10 16 0.00 0.00
3:52 pm 15:52 Partly Cloudy 83 28.3 54 12.2 37 37 SSE 16 26 30.16 1022 10 16 0.00 0.00
4:52 pm 16:52 Partly Cloudy 83 28.3 54 12.2 37 37 SSE 16 26 30.14 1021 10 16 0.00 0.00
5:52 pm 17:52 Mostly Sunny 83 28.3 54 12.2 37 37 S 18 30 30.12 1020 10 16 0.00 0.00
6:52 pm 18:52 Partly Cloudy 81 27.2 52 11.1 37 37 S 13 20 30.10 1019 10 16 0.00 0.00
7:52 pm 19:52 Partly Cloudy 78 25.6 53 11.7 42 42 S 13 20 30.09 1019 10 16 0.00 0.00
8:52 pm 20:52 Partly Cloudy 73 22.8 54 12.2 51 51 S 8 13 30.10 1019 10 16 0.00 0.00
9:52 pm 21:52 Partly Cloudy 70 21.1 53 11.7 55 55 SSE 8 13 30.10 1019 10 16 0.00 0.00
10:52 pm 22:52 Mostly Clear 71 21.7 53 11.7 53 53 SSE 10 17 30.10 1019 10 16 0.00 0.00
11:52 pm 23:52 Mostly Clear 70 21.1 53 11.7 55 55 S 10 17 30.10 1019 10 16 0.00 0.00

Powered by AerisWeather